Voltar ao catálogo

CZ-12 R/B

AtivoLEO
NORAD 69581·ROCKET BODY·🇨🇳 China

Lançado Jun 17, 2026 de Wenchang Space Launch Site

Loading…

Próximas Passagens (próximas 24 horas)

TLE

AtualizadoSource: Space-Track

Época: Sep 14, 2026, 08:28 UTC

1 69581U 26137K   26257.35328925 -.00000067  00000-0  47144-4 0  9995
2 69581  49.9882 247.3348 0077425  58.7399 302.1063 14.11697712 12601

Acompanhe CZ-12 R/B em tempo real com AllMySat

Download on the App Store